TimeMST,TemperatureF,Dew PointF,Humidity,Sea Level PressureIn,VisibilityMPH,Wind Direction,Wind SpeedMPH,Gust SpeedMPH,PrecipitationIn,Events,Conditions,WindDirDegrees,DateUTC
12:53 AM,30.0,10.0,43,29.56,10.0,SSW,3.5,-,N/A,,Clear,200,2013-02-20 07:53:00
1:53 AM,28.9,10.9,47,29.56,10.0,Calm,Calm,-,N/A,,Partly Cloudy,0,2013-02-20 08:53:00
2:53 AM,28.9,12.0,49,29.54,10.0,Calm,Calm,-,N/A,,Mostly Cloudy,0,2013-02-20 09:53:00
3:53 AM,28.9,12.9,51,29.52,10.0,Calm,Calm,-,N/A,,Partly Cloudy,0,2013-02-20 10:53:00
4:53 AM,30.0,12.9,49,29.50,10.0,South,4.6,-,N/A,,Scattered Clouds,180,2013-02-20 11:53:00
5:53 AM,30.9,16.0,54,29.51,10.0,SSW,5.8,-,N/A,,Overcast,210,2013-02-20 12:53:00
6:53 AM,28.9,16.0,58,29.53,10.0,SSW,8.1,-,N/A,,Mostly Cloudy,210,2013-02-20 13:53:00
7:53 AM,30.9,18.0,59,29.55,10.0,SSW,8.1,-,N/A,,Overcast,200,2013-02-20 14:53:00
8:50 AM,30.2,19.4,64,29.62,2.0,SSW,12.7,20.7,0.00,Snow,Light Snow,200,2013-02-20 15:50:00
8:53 AM,30.0,21.9,72,29.55,1.0,SSW,12.7,20.7,0.00,Snow,Light Snow,210,2013-02-20 15:53:00
9:02 AM,28.4,24.8,86,29.62,0.8,SW,11.5,-,0.00,Snow,Light Snow,220,2013-02-20 16:02:00
9:15 AM,28.4,24.8,86,29.62,1.0,SSW,6.9,-,0.00,Snow,Light Snow,200,2013-02-20 16:15:00
9:43 AM,28.4,24.8,86,29.62,3.0,SSW,6.9,-,0.00,Snow,Light Snow,210,2013-02-20 16:43:00
9:53 AM,30.0,25.0,82,29.55,9.0,SSW,10.4,16.1,0.01,,Overcast,200,2013-02-20 16:53:00
10:13 AM,32.0,24.8,75,29.61,10.0,SW,15.0,20.7,N/A,,Overcast,220,2013-02-20 17:13:00
10:46 AM,33.8,21.2,60,29.61,10.0,SW,12.7,24.2,N/A,,Mostly Cloudy,220,2013-02-20 17:46:00
10:53 AM,34.0,21.9,61,29.52,10.0,SW,16.1,21.9,N/A,,Mostly Cloudy,220,2013-02-20 17:53:00
11:19 AM,33.8,21.2,60,29.61,8.0,WSW,15.0,23.0,0.00,Snow,Light Snow,250,2013-02-20 18:19:00
11:30 AM,32.0,19.4,60,29.60,10.0,WSW,13.8,-,0.00,,Mostly Cloudy,240,2013-02-20 18:30:00
11:53 AM,34.0,19.9,56,29.52,10.0,SW,13.8,21.9,0.00,,Overcast,220,2013-02-20 18:53:00
12:53 PM,36.0,19.0,50,29.49,10.0,WSW,10.4,-,0.00,,Overcast,250,2013-02-20 19:53:00
1:53 PM,35.1,19.0,52,29.49,10.0,WSW,10.4,-,0.00,,Scattered Clouds,240,2013-02-20 20:53:00
2:49 PM,30.2,24.8,80,29.58,1.0,SW,16.1,19.6,0.00,Snow,Light Snow,230,2013-02-20 21:49:00
2:53 PM,28.0,25.0,88,29.54,0.2,SW,16.1,19.6,0.01,Fog-Snow,Snow,230,2013-02-20 21:53:00
3:05 PM,26.6,24.8,93,29.58,0.2,SSW,9.2,-,0.02,Fog-Snow,Snow,200,2013-02-20 22:05:00
3:14 PM,26.6,24.8,93,29.58,1.0,SSE,3.5,-,0.02,Snow,Light Snow,160,2013-02-20 22:14:00
3:19 PM,28.4,24.8,86,29.57,2.0,SSE,3.5,-,0.02,Snow,Light Snow,160,2013-02-20 22:19:00
3:27 PM,28.4,24.8,86,29.57,6.0,Calm,Calm,-,0.02,Snow,Light Snow,0,2013-02-20 22:27:00
3:41 PM,30.2,24.8,80,29.57,10.0,Calm,Calm,-,0.02,,Overcast,0,2013-02-20 22:41:00
3:53 PM,30.0,23.0,75,29.52,10.0,Calm,Calm,-,0.02,,Mostly Cloudy,0,2013-02-20 22:53:00
4:53 PM,30.9,21.0,67,29.51,10.0,WSW,5.8,-,0.00,,Partly Cloudy,250,2013-02-20 23:53:00
5:53 PM,30.9,23.0,72,29.52,10.0,NW,3.5,-,N/A,,Overcast,310,2013-02-21 00:53:00
6:53 PM,28.9,23.0,78,29.55,10.0,Calm,Calm,-,N/A,,Overcast,0,2013-02-21 01:53:00
7:53 PM,27.0,21.9,81,29.56,10.0,SSW,5.8,-,N/A,,Mostly Cloudy,200,2013-02-21 02:53:00
8:53 PM,25.0,19.0,78,29.60,10.0,SW,12.7,-,N/A,,Overcast,220,2013-02-21 03:53:00
9:04 PM,24.8,19.4,80,29.63,10.0,SW,8.1,-,N/A,,Overcast,220,2013-02-21 04:04:00
9:53 PM,25.0,19.0,78,29.61,8.0,SW,4.6,-,0.00,Snow,Light Snow,230,2013-02-21 04:53:00
10:24 PM,24.8,19.4,80,29.65,1.8,SW,5.8,-,0.00,Snow,Light Snow,220,2013-02-21 05:24:00
10:43 PM,24.8,19.4,80,29.65,3.0,Variable,5.8,-,0.01,Snow,Light Snow,0,2013-02-21 05:43:00
10:53 PM,24.1,19.0,81,29.61,9.0,West,5.8,-,0.01,,Overcast,270,2013-02-21 05:53:00
11:53 PM,24.1,18.0,77,29.61,10.0,WSW,8.1,-,N/A,,Overcast,240,2013-02-21 06:53:00